Wind_Speed
26 26 27 28 28 28 28 28 28 28 27 27 26 26 26 26 26 26 26 26 26 26 26 26 27 27 27 27 26 27 27 27 27 26 27 27 27 26 27 27 26 26 26
26 26 26 27 27 26 26 26 26 26 25 25 24 24 24 24 24 24 24 24 24 25 25 25 25 25 25 25 25 25 25 26 25 24 24 24 24 24 25 25 24 24 25
26 26 26 26 26 26 25 25 25 24 23 23 22 22 22 23 22 22 23 23 23 23 23 23 23 23 23 24 24 24 23 23 23 22 23 23 22 22 22 23 23 23 23
25 25 25 26 26 24 23 23 22 22 22 22 22 22 22 22 21 21 21 21 21 21 22 22 22 22 22 22 22 22 22 22 22 22 22 22 22 22 21 22 21 22 22
24 24 24 24 24 23 22 22 22 22 21 21 21 21 21 20 19 19 19 19 19 20 20 20 21 21 21 21 21 22 21 21 21 21 21 21 20 20 20 20 20 20 20
22 22 21 22 21 21 21 21 20 20 19 19 19 18 17 17 17 18 18 18 18 18 18 18 18 19 19 19 18 19 19 19 19 20 20 20 19 18 18 17 17 17 17
19 19 19 19 20 20 20 19 18 17 16 16 16 16 15 16 16 16 16 16 16 16 16 15 15 14 14 14 14 15 15 15 16 16 17 17 17 16 16 16 15 16 16
18 18 18 18 18 18 18 17 16 15 15 15 15 14 14 14 14 14 14 14 14 13 12 12 11 11 11 11 11 11 12 13 13 13 13 14 13 14 13 14 14 15 14
17 17 17 17 16 16 16 14 13 14 14 14 13 13 13 13 13 12 12 12 11 10 9 9 9 9 9 9 9 9 9 9 10 10 10 10 10 10 10 10 10 10 9
16 16 16 15 15 14 13 13 13 13 13 12 12 12 12 11 10 10 10 10 10 9 8 8 7 6 6 7 7 6 6 6 7 7 7 7 7 7 7 6 6 6 6
15 15 14 13 12 12 12 12 12 12 12 11 11 11 10 10 9 9 9 8 8 7 7 6 5 4 4 4 4 4 4 4 4 5 5 5 5 5 4 4 5 5 5
13 13 12 11 11 11 12 11 12 11 10 10 10 10 10 9 9 8 7 8 7 6 5 4 4 2 1 1 0 1 2 2 2 3 3 2 2 2 2 2 2 2 3
11 12 12 11 11 10 10 10 10 10 10 9 9 10 10 9 9 8 7 7 6 6 5 4 4 4 4 4 4 3 3 3 4 3 2 2 2 1 1 0 1 2 3
11 11 11 11 10 10 10 9 10 10 9 10 10 10 10 10 10 9 9 9 8 7 7 6 6 7 7 6 6 6 6 5 5 4 3 2 2 2 1 1 1 2 3
10 10 10 10 11 10 9 9 9 9 9 9 10 10 10 10 10 10 10 10 10 9 9 9 8 8 8 8 7 7 6 6 5 5 4 4 3 2 1 1 2 2 4
9 9 8 9 9 9 9 9 9 9 9 9 9 10 10 11 11 11 10 11 10 10 9 9 9 8 8 8 8 7 7 6 5 5 5 4 4 3 3 3 3 5 6
8 8 8 8 9 9 9 9 9 9 9 10 9 9 10 10 10 11 11 11 10 11 10 9 9 8 8 8 7 7 6 6 6 5 5 5 4 4 4 5 5 6 7
8 8 8 8 9 9 9 9 9 9 9 10 10 10 10 10 10 10 11 11 10 10 10 9 9 9 8 8 7 7 6 6 6 6 5 5 5 5 5 6 7 8 9
7 7 8 8 9 9 9 9 9 9 9 9 10 10 10 10 10 10 11 11 10 10 9 9 9 8 7 7 7 7 7 6 6 6 5 5 6 6 6 7 8 10 11
7 7 8 8 8 8 8 8 8 9 9 9 9 10 10 9 9 9 9 9 9 8 8 9 9 8 8 7 7 6 6 6 5 5 5 6 6 7 8 9 10 11 12
7 7 8 7 7 8 8 8 8 8 8 8 8 8 8 8 8 8 8 8 7 7 7 7 7 7 7 6 6 6 6 5 5 5 6 7 8 9 10 11 12 13 15
7 7 8 8 7 7 8 8 8 8 8 7 7 7 7 7 7 6 6 7 7 7 6 6 5 5 5 5 5 5 5 6 6 7 8 9 10 11 12 13 15 16 18
7 7 7 7 8 7 7 7 7 7 7 6 6 7 7 7 6 6 6 6 6 6 6 6 6 6 6 6 6 6 7 8 9 10 11 12 13 14 15 16 18 19 20
6 7 7 7 7 7 6 6 7 7 7 7 6 6 7 7 7 7 7 7 6 7 7 7 7 7 8 8 9 9 10 12 12 13 14 15 16 17 18 19 20 21 22
6 7 7 7 7 7 7 7 7 7 7 7 7 7 7 8 8 8 8 8 8 8 9 9 9 10 11 11 12 12 13 14 15 16 17 18 19 20 20 21 22 23 24
8 7 7 7 8 8 8 8 8 8 8 9 9 9 9 9 10 10 10 11 11 10 11 12 12 13 13 14 14 15 16 17 18 19 19 20 21 21 22 24 25 26 27
Wind_Direction
302 302 302 303 302 301 300 299 298 298 296 294 293 291 289 288 288 286 284 282 281 279 278 276 275 274 273 273 270 268 268 268 268 269 271 271 273 275 275 274 275 273 274
303 303 304 303 303 303 303 302 299 299 299 296 293 293 292 292 291 289 287 286 284 281 279 278 276 275 273 271 269 269 268 267 266 267 269 270 272 275 275 274 273 272 272
303 303 304 307 306 305 304 302 301 299 300 299 297 296 296 294 292 290 289 288 287 284 281 279 278 277 275 271 270 269 267 265 265 265 267 269 270 274 275 273 272 272 273
303 303 304 306 308 307 306 305 304 303 303 302 300 299 297 296 295 293 293 291 289 287 283 279 278 277 274 271 269 267 266 265 264 263 265 266 268 269 273 272 270 270 272
304 304 304 306 307 309 309 309 309 308 307 305 303 302 300 299 299 297 295 294 290 287 284 281 278 276 273 271 269 267 265 263 262 261 262 265 267 269 271 273 269 269 271
308 308 309 310 310 311 311 310 310 309 308 307 306 304 303 303 302 300 297 296 293 289 286 284 280 277 275 273 270 266 262 260 260 260 261 265 267 268 270 273 270 268 270
310 310 312 314 313 313 313 312 313 313 314 314 314 311 307 305 304 301 299 299 297 293 289 286 284 279 275 274 272 268 264 260 257 257 261 263 265 267 267 269 269 268 269
312 311 313 316 317 318 318 316 313 315 316 317 318 317 313 309 308 305 304 303 301 298 294 289 284 279 275 273 272 267 260 258 257 258 260 262 263 262 264 268 268 267 268
317 316 316 318 320 324 328 328 324 325 323 321 321 322 319 315 312 308 307 306 309 309 301 294 290 284 276 274 272 264 256 253 252 253 256 258 260 263 264 268 265 264 267
323 322 322 326 329 332 334 335 334 333 333 333 332 329 326 326 325 318 315 316 317 317 312 307 301 291 280 275 274 264 254 247 243 247 253 255 257 254 250 252 254 259 269
331 331 331 333 335 336 338 341 343 344 345 347 346 343 341 340 337 333 330 328 327 326 327 323 319 303 291 283 276 265 244 235 236 237 238 237 237 233 240 252 262 267 274
339 340 342 342 339 340 342 346 351 355 360 359 357 357 355 351 348 349 350 346 346 351 354 353 354 351 341 334 282 211 193 192 199 192 190 200 217 217 235 257 262 263 286
346 350 351 348 345 347 350 354 1 7 8 6 5 6 6 6 5 8 12 14 14 13 19 26 36 55 66 78 92 114 130 135 141 145 146 142 128 119 77 189 259 280 293
350 352 355 359 2 5 7 6 9 13 15 16 18 19 23 28 31 37 40 39 42 45 51 53 60 70 78 81 83 94 101 109 112 114 115 111 104 99 89 307 305 313 318
353 355 359 3 8 11 12 13 16 19 19 20 25 29 32 35 40 44 44 51 56 60 63 64 70 78 82 81 84 90 93 93 96 96 91 92 94 89 59 7 356 351 340
359 1 6 9 13 17 20 23 27 28 30 31 32 36 39 41 43 44 46 52 54 57 62 64 69 73 73 79 82 83 84 88 92 90 82 79 68 59 48 32 10 352 343
9 12 15 17 19 20 25 29 32 35 38 38 38 38 39 40 44 47 50 55 57 58 62 63 62 62 72 78 80 83 84 81 78 73 68 61 51 40 27 14 3 355 349
20 20 20 21 24 26 29 34 38 40 42 41 41 43 45 50 52 52 52 55 60 59 59 62 65 66 67 69 70 72 76 75 67 64 61 46 35 25 13 4 357 349 343
23 21 21 25 29 30 33 37 40 41 42 43 46 48 52 57 57 56 55 56 59 60 59 60 61 60 59 61 63 65 65 61 52 45 39 29 20 10 0 352 346 341 338
25 24 25 24 24 25 29 33 37 41 43 47 51 53 56 60 59 56 58 57 52 49 51 54 56 53 51 54 56 55 51 46 38 29 21 12 4 356 347 341 337 336 334
25 26 25 24 24 26 28 31 35 41 47 48 49 47 46 47 48 49 45 44 42 41 41 42 43 43 44 45 44 42 37 29 18 7 358 351 346 340 336 333 332 331 330
24 28 28 27 23 23 27 30 31 33 36 40 40 36 35 34 34 35 32 29 27 25 25 23 24 23 22 17 14 10 5 358 349 342 338 335 332 331 331 330 329 327 326
21 21 20 17 16 18 20 24 26 24 25 23 23 24 23 22 22 18 12 8 5 0 360 0 359 357 354 350 346 341 337 333 331 329 327 326 325 325 325 325 324 324 324
4 4 5 8 9 10 9 8 7 8 8 7 5 7 8 4 1 358 354 347 338 335 335 336 335 333 331 328 324 321 319 319 318 318 318 318 318 318 319 321 322 323 323
348 349 350 352 352 351 349 347 345 343 343 344 346 345 344 342 339 338 337 334 329 324 322 319 316 314 314 314 312 311 311 312 314 314 314 313 313 315 317 319 320 321 321
330 331 332 333 334 333 332 331 330 328 326 326 326 326 325 325 324 323 323 322 321 317 315 314 311 309 307 306 306 305 305 306 307 308 309 310 311 312 314 315 316 318 319
Height
5792 5789 5786 5783 5780 5777 5774 5771 5769 5767 5765 5763 5761 5759 5757 5756 5755 5753 5752 5751 5751 5750 5750 5750 5751 5751 5751 5752 5753 5753 5754 5756 5757 5758 5758 5759 5760 5761 5762 5762 5763 5764 5765
5786 5783 5780 5777 5773 5770 5768 5765 5763 5760 5758 5756 5754 5752 5751 5749 5748 5746 5745 5744 5744 5743 5743 5743 5743 5743 5744 5744 5745 5746 5747 5748 5750 5751 5752 5753 5754 5754 5755 5756 5757 5758 5759
5781 5778 5775 5771 5768 5765 5762 5759 5757 5754 5752 5750 5748 5746 5744 5743 5741 5740 5739 5737 5737 5736 5736 5736 5736 5736 5737 5737 5738 5739 5740 5741 5743 5744 5745 5746 5747 5748 5749 5749 5750 5751 5752
5775 5772 5769 5766 5763 5760 5757 5754 5751 5748 5746 5744 5742 5740 5738 5737 5735 5733 5732 5731 5730 5730 5730 5729 5729 5730 5730 5730 5731 5732 5733 5734 5736 5737 5739 5740 5741 5741 5742 5743 5744 5745 5746
5770 5767 5764 5761 5758 5755 5752 5749 5746 5744 5741 5739 5737 5735 5733 5732 5730 5728 5727 5726 5725 5724 5724 5723 5723 5723 5723 5724 5724 5725 5727 5728 5729 5731 5732 5733 5734 5735 5736 5737 5738 5739 5740
5766 5763 5760 5757 5754 5751 5748 5745 5742 5739 5737 5735 5733 5730 5729 5727 5725 5724 5722 5721 5720 5719 5718 5718 5717 5717 5717 5718 5718 5719 5720 5722 5723 5725 5726 5727 5728 5729 5730 5731 5732 5733 5734
5762 5759 5756 5753 5750 5747 5744 5741 5738 5736 5733 5731 5729 5727 5725 5723 5721 5720 5718 5717 5716 5714 5714 5713 5712 5712 5712 5713 5713 5714 5715 5716 5718 5720 5721 5722 5723 5724 5725 5726 5727 5728 5730
5758 5756 5753 5750 5747 5744 5740 5737 5735 5732 5730 5728 5726 5724 5721 5719 5718 5716 5715 5713 5712 5711 5710 5709 5708 5708 5708 5708 5709 5709 5710 5712 5713 5715 5717 5718 5719 5720 5721 5722 5723 5724 5725
5755 5752 5749 5747 5744 5741 5738 5735 5732 5730 5728 5726 5723 5721 5719 5717 5715 5713 5712 5710 5709 5708 5707 5706 5705 5705 5705 5705 5705 5706 5707 5708 5710 5712 5713 5714 5715 5716 5717 5718 5719 5720 5721
5752 5749 5746 5744 5741 5739 5736 5734 5731 5729 5726 5724 5721 5719 5717 5715 5713 5711 5710 5708 5707 5706 5705 5704 5703 5703 5702 5703 5703 5704 5705 5706 5707 5709 5710 5711 5712 5713 5714 5715 5716 5717 5718
5750 5747 5744 5742 5740 5738 5735 5733 5730 5728 5725 5722 5720 5718 5715 5713 5712 5710 5708 5707 5705 5704 5703 5703 5702 5701 5701 5701 5702 5702 5703 5705 5706 5707 5709 5710 5711 5712 5712 5713 5714 5715 5716
5749 5746 5743 5741 5739 5736 5734 5732 5729 5727 5725 5722 5720 5718 5715 5713 5711 5709 5708 5706 5705 5704 5703 5702 5701 5701 5701 5701 5701 5702 5703 5704 5706 5707 5708 5709 5710 5710 5711 5712 5713 5713 5714
5748 5746 5743 5740 5738 5736 5734 5732 5730 5727 5725 5723 5721 5719 5716 5714 5712 5710 5709 5707 5706 5704 5704 5703 5702 5702 5701 5702 5702 5702 5703 5705 5706 5707 5708 5709 5710 5710 5711 5712 5712 5712 5713
5748 5745 5743 5741 5738 5736 5734 5732 5730 5728 5726 5724 5722 5720 5718 5715 5713 5712 5710 5709 5707 5706 5705 5705 5704 5703 5703 5704 5704 5705 5705 5706 5707 5708 5708 5709 5710 5710 5711 5711 5711 5712 5712
5748 5746 5743 5741 5739 5737 5735 5733 5731 5729 5727 5725 5723 5721 5720 5718 5716 5714 5713 5711 5710 5709 5708 5707 5707 5707 5707 5707 5707 5707 5708 5708 5709 5709 5710 5710 5710 5711 5711 5711 5711 5711 5711
5748 5746 5744 5742 5740 5738 5736 5734 5732 5731 5729 5727 5725 5724 5722 5720 5718 5717 5715 5714 5713 5712 5711 5710 5710 5710 5710 5710 5710 5710 5710 5710 5711 5711 5711 5711 5711 5712 5712 5711 5711 5711 5710
5748 5747 5745 5743 5741 5740 5738 5736 5734 5733 5731 5729 5728 5726 5724 5723 5721 5720 5718 5717 5716 5715 5714 5714 5713 5713 5713 5712 5713 5712 5712 5712 5712 5712 5712 5712 5712 5712 5712 5711 5711 5710 5709
5749 5748 5746 5745 5743 5741 5740 5738 5736 5735 5734 5732 5730 5728 5727 5725 5724 5723 5721 5720 5719 5718 5718 5717 5716 5716 5715 5715 5715 5715 5714 5714 5714 5714 5714 5714 5713 5713 5712 5711 5710 5709 5708
5751 5749 5748 5746 5745 5743 5742 5740 5738 5737 5736 5734 5732 5731 5730 5728 5727 5726 5725 5724 5723 5722 5721 5720 5720 5719 5718 5718 5717 5717 5717 5716 5716 5715 5715 5714 5714 5713 5712 5711 5709 5708 5706
5752 5750 5749 5748 5746 5745 5743 5742 5740 5739 5737 5736 5735 5734 5733 5732 5730 5729 5728 5727 5726 5725 5725 5723 5722 5722 5721 5720 5719 5719 5718 5718 5717 5716 5716 5715 5714 5712 5711 5710 5708 5706 5704
5753 5752 5750 5749 5748 5746 5745 5743 5742 5741 5739 5738 5737 5736 5735 5734 5733 5732 5731 5730 5729 5728 5727 5726 5725 5724 5723 5722 5721 5721 5720 5719 5718 5717 5716 5715 5713 5711 5710 5708 5706 5703 5701
5755 5753 5752 5751 5749 5748 5747 5745 5744 5743 5741 5740 5739 5738 5737 5736 5735 5734 5733 5732 5730 5729 5728 5727 5726 5725 5724 5724 5723 5722 5721 5719 5718 5717 5715 5714 5712 5710 5708 5705 5703 5700 5697
5756 5754 5753 5752 5750 5749 5748 5747 5745 5744 5743 5742 5741 5740 5738 5737 5736 5735 5734 5733 5732 5730 5729 5728 5727 5726 5725 5724 5722 5721 5720 5719 5717 5715 5714 5712 5709 5707 5705 5702 5699 5696 5693
5756 5755 5754 5752 5751 5750 5749 5748 5747 5745 5744 5743 5742 5741 5739 5738 5737 5736 5734 5733 5732 5731 5729 5728 5727 5726 5724 5723 5722 5720 5718 5717 5715 5713 5711 5709 5706 5704 5701 5698 5695 5691 5688
5757 5755 5754 5753 5752 5750 5749 5748 5747 5745 5744 5743 5742 5741 5739 5738 5737 5735 5734 5733 5731 5730 5729 5727 5726 5724 5723 5721 5719 5718 5716 5714 5712 5710 5707 5705 5702 5699 5696 5693 5690 5686 5683
5756 5755 5754 5753 5751 5750 5749 5747 5746 5745 5744 5742 5741 5740 5739 5737 5736 5734 5733 5731 5730 5728 5727 5725 5723 5722 5720 5718 5716 5714 5712 5710 5708 5705 5702 5700 5697 5694 5691 5688 5684 5680 5676